Puyallup, WA

5:02 AM PST on February 23, 2018 (GMT -0800)
Pierce County - Thun Field

Weather History for KPLU - September, 2013

Change the Weather History Date:

Friday, September 13, 2013

  Actual Average (KTCM) Record (KTCM)
Temperature  
Mean Temperature 60 °F -  
Max Temperature 64 °F 68 °F 87 °F (1999)
Min Temperature 57 °F 47 °F 34 °F (1970)
Degree Days  
Heating Degree Days 4    
Growing Degree Days 10 (Base 50)    
Moisture  
Dew Point 61 °F    
Average Humidity 99    
Maximum Humidity 100    
Minimum Humidity 94    
Precipitation  
Precipitation 0.00 in - - ()
Sea Level Pressure  
Sea Level Pressure 29.95 in    
Wind  
Wind Speed 0 mph (WSW)    
Max Wind Speed 5 mph    
Max Gust Speed -    
Visibility 7 miles    
Events Fog    
Averages and records for this station are not official NWS values.
T = Trace of Precipitation, MM = Missing Value Source: NWS Daily Summary

Daily Weather History Graph

Daily Weather History Graph

Search for Another Location

Airport or City:

Trip Planner

Search our weather history database for the weather conditions in past years. The results will help you decide how hot, cold, wet, or windy it might be!

Date:

Astronomy

Sep. 13, 2013 Rise Set
Actual Time 6:44 AM PDT 7:24 PM PDT
Civil Twilight 6:13 AM PDT 7:55 PM PDT
Nautical Twilight 5:37 AM PDT 8:31 PM PDT
Astronomical Twilight 4:58 AM PDT 9:09 PM PDT
Moon 3:35 PM PDT (9/13) 12:02 AM PDT (9/13)
Length of Visible Light 13h 41m
Length of Day
12h 39m
Waxing Gibbous, 62% of the Moon is Illuminated
Sep 13
Waxing Gibbous
Sep 19
Full
Sep 26
Last Quarter
Oct 4
New
Oct 11
First Quarter

Hourly Weather History & Observations

Time (PDT) Temp. Dew Point Humidity Pressure Visibility Wind Dir Wind Speed Gust Speed Precip Events Conditions
12:15 AM 59.0 °F 59.0 °F 100% 29.96 in 10.0 mi Calm Calm - N/A   Unknown
12:35 AM 59.0 °F 59.0 °F 100% 29.96 in 10.0 mi Calm Calm - N/A   Unknown
12:55 AM 57.2 °F 57.2 °F 100% 29.97 in 5.0 mi Calm Calm - N/A   Mist
1:15 AM 57.2 °F 57.2 °F 100% 29.97 in 2.0 mi Calm Calm - N/A   Mist
1:35 AM 57.2 °F 57.2 °F 100% 29.97 in 5.0 mi Calm Calm - N/A   Mist
1:55 AM 57.2 °F 57.2 °F 100% 29.97 in 2.0 mi Calm Calm - N/A   Mist
2:15 AM 57.2 °F 57.2 °F 100% 29.98 in 5.0 mi Calm Calm - N/A   Mist
2:35 AM 59.0 °F 59.0 °F 100% 29.98 in 10.0 mi Calm Calm - N/A   Unknown
2:55 AM 59.0 °F 59.0 °F 100% 29.98 in 4.0 mi West 3.5 mph - N/A   Mist
3:15 AM 59.0 °F 59.0 °F 100% 29.98 in 1.0 mi Calm Calm - N/A   Mist
3:35 AM 59.0 °F 59.0 °F 100% 29.98 in 0.5 mi Calm Calm - N/A Fog Fog
3:55 AM 59.0 °F 59.0 °F 100% 29.99 in 0.2 mi Calm Calm - N/A Fog Fog
4:15 AM 59.0 °F 59.0 °F 100% 29.99 in 0.5 mi Calm Calm - N/A Fog Fog
4:35 AM 59.0 °F 59.0 °F 100% 29.99 in 0.8 mi Calm Calm - N/A   Mist
4:55 AM 59.0 °F 59.0 °F 100% 29.99 in 1.2 mi Calm Calm - N/A   Mist
5:15 AM 59.0 °F 59.0 °F 100% 29.99 in 0.8 mi Calm Calm - N/A   Mist
5:35 AM 59.0 °F 59.0 °F 100% 29.99 in 1.0 mi Calm Calm - N/A   Mist
5:55 AM 59.0 °F 59.0 °F 100% 29.99 in 1.0 mi Calm Calm - N/A   Mist
6:15 AM 59.0 °F 59.0 °F 100% 29.99 in 0.8 mi SW 4.6 mph - N/A   Mist
6:35 AM 59.0 °F 59.0 °F 100% 29.99 in 1.8 mi Calm Calm - N/A   Mist
6:55 AM 59.0 °F 59.0 °F 100% 29.99 in 1.2 mi Calm Calm - N/A   Mist
7:15 AM 59.0 °F 59.0 °F 100% 29.99 in 0.8 mi Calm Calm - N/A   Mist
7:35 AM 59.0 °F 59.0 °F 100% 29.99 in 0.5 mi Calm Calm - N/A Fog Fog
7:55 AM 59.0 °F 59.0 °F 100% 29.99 in 0.8 mi Calm Calm - N/A   Mist
8:15 AM 59.0 °F 59.0 °F 100% 29.98 in 0.8 mi Calm Calm - N/A   Mist
8:35 AM 59.0 °F 59.0 °F 100% 29.98 in 1.8 mi Calm Calm - N/A   Mist
8:55 AM 59.0 °F 59.0 °F 100% 29.98 in 1.2 mi Calm Calm - N/A   Mist
9:15 AM 59.0 °F 59.0 °F 100% 29.98 in 2.0 mi Calm Calm - N/A   Mist
9:35 AM 59.0 °F 59.0 °F 100% 29.99 in 4.0 mi Calm Calm - N/A   Mist
9:55 AM 59.0 °F 59.0 °F 100% 29.99 in 5.0 mi Calm Calm - N/A   Mist
10:15 AM 59.0 °F 59.0 °F 100% 29.99 in 4.0 mi Calm Calm - N/A   Mist
10:35 AM 59.0 °F 59.0 °F 100% 29.98 in 3.0 mi Calm Calm - N/A   Mist
10:55 AM 60.8 °F 60.8 °F 100% 29.98 in 10.0 mi Calm Calm - N/A   Unknown
11:15 AM 60.8 °F 60.8 °F 100% 29.98 in 10.0 mi Calm Calm - N/A   Unknown
11:35 AM 60.8 °F 60.8 °F 100% 29.98 in 9.0 mi Calm Calm - N/A   Unknown
11:55 AM 60.8 °F 60.8 °F 100% 29.98 in 10.0 mi Calm Calm - N/A   Unknown
12:15 PM 60.8 °F 60.8 °F 100% 29.97 in 10.0 mi Calm Calm - N/A   Unknown
12:35 PM 62.6 °F 62.6 °F 100% 29.97 in 10.0 mi Calm Calm - N/A   Unknown
12:55 PM 62.6 °F 60.8 °F 94% 29.97 in 10.0 mi Calm Calm - N/A   Unknown
1:15 PM 62.6 °F 60.8 °F 94% 29.97 in 10.0 mi Calm Calm - N/A   Unknown
1:35 PM 62.6 °F 62.6 °F 100% 29.96 in 10.0 mi Calm Calm - N/A   Unknown
1:55 PM 62.6 °F 60.8 °F 94% 29.96 in 10.0 mi Calm Calm - N/A   Unknown
2:15 PM 62.6 °F 62.6 °F 100% 29.95 in 10.0 mi Calm Calm - N/A   Unknown
2:35 PM 62.6 °F 62.6 °F 100% 29.95 in 10.0 mi Calm Calm - N/A   Unknown
2:55 PM 62.6 °F 62.6 °F 100% 29.95 in 10.0 mi Calm Calm - N/A   Unknown
3:15 PM 62.6 °F 62.6 °F 100% 29.94 in 10.0 mi Calm Calm - N/A   Unknown
3:35 PM 62.6 °F 62.6 °F 100% 29.94 in 10.0 mi Calm Calm - N/A   Unknown
3:55 PM 62.6 °F 62.6 °F 100% 29.93 in 10.0 mi Calm Calm - N/A   Unknown
4:15 PM 64.4 °F 62.6 °F 94% 29.93 in 10.0 mi Calm Calm - N/A   Unknown
4:35 PM 64.4 °F 62.6 °F 94% 29.93 in 10.0 mi Calm Calm - N/A   Unknown
4:55 PM 64.4 °F 62.6 °F 94% 29.92 in 10.0 mi Calm Calm - N/A   Unknown
5:15 PM 64.4 °F 62.6 °F 94% 29.92 in 10.0 mi Calm Calm - N/A   Unknown
5:35 PM 64.4 °F 62.6 °F 94% 29.92 in 10.0 mi Calm Calm - N/A   Unknown
5:55 PM 64.4 °F 62.6 °F 94% 29.91 in 10.0 mi Calm Calm - N/A   Unknown
6:15 PM 64.4 °F 62.6 °F 94% 29.91 in 10.0 mi Calm Calm - N/A   Unknown
6:35 PM 62.6 °F 62.6 °F 100% 29.90 in 10.0 mi Calm Calm - N/A   Unknown
6:55 PM 62.6 °F 62.6 °F 100% 29.90 in 10.0 mi Calm Calm - N/A   Unknown
7:15 PM 62.6 °F 62.6 °F 100% 29.90 in 10.0 mi Calm Calm - N/A   Unknown
7:35 PM 62.6 °F 62.6 °F 100% 29.90 in 10.0 mi Calm Calm - N/A   Unknown
7:55 PM 62.6 °F 62.6 °F 100% 29.90 in 10.0 mi Calm Calm - N/A   Unknown
8:15 PM 62.6 °F 62.6 °F 100% 29.90 in 10.0 mi Calm Calm - N/A   Unknown
8:35 PM 62.6 °F 62.6 °F 100% 29.91 in 10.0 mi Calm Calm - N/A   Unknown
8:55 PM 62.6 °F 62.6 °F 100% 29.91 in 10.0 mi Calm Calm - N/A   Unknown
9:15 PM 62.6 °F 62.6 °F 100% 29.91 in 10.0 mi Calm Calm - N/A   Unknown
9:35 PM 62.6 °F 62.6 °F 100% 29.91 in 10.0 mi Calm Calm - N/A   Unknown
9:55 PM 62.6 °F 62.6 °F 100% 29.91 in 10.0 mi Calm Calm - N/A   Unknown
10:15 PM 62.6 °F 62.6 °F 100% 29.91 in 10.0 mi Calm Calm - N/A   Unknown
10:35 PM 62.6 °F 60.8 °F 94% 29.91 in 10.0 mi Calm Calm - N/A   Unknown
10:55 PM 62.6 °F 60.8 °F 94% 29.91 in 10.0 mi Calm Calm - N/A   Unknown
11:15 PM 62.6 °F 60.8 °F 94% 29.91 in 10.0 mi Calm Calm - N/A   Unknown
11:35 PM 62.6 °F 60.8 °F 94% 29.91 in 10.0 mi Calm Calm - N/A   Unknown
11:55 PM 62.6 °F 60.8 °F 94% 29.90 in 10.0 mi Calm Calm - N/A   Unknown